Regional Weather Roundup
Issued by NWS

Home | Current Version | Previous Version | Text Only | Print | Product List | Glossary Off
Versions: 1 2 3 4 5 6 7 8 9 10 11 12 13 14 15 16 17 18 19 20 21 22 23 24 25 26 27

000
ASUS45 KCYS 202310
RWRWY

WYOMING REGIONAL WEATHER ROUNDUP
NATIONAL WEATHER SERVICE CHEYENNE WY
400 PM MST FRI JAN 20 2017

NOTE:  "FAIR" INDICATES FEW OR NO CLOUDS BELOW 12,000 FEET
WITH NO SIGNIFICANT WEATHER AND/OR OBSTRUCTIONS TO VISIBILITY.

WYZ001-210000-
YELLOWSTONE NATIONAL PARK

CITY           SKY/WX    TMP DP  RH WIND       PRES   REMARKS
LK YELLOWSTONE   N/A     23  16  74 VRB3      29.40F
W YELLOWSTONE  NOT AVBL

$$
WYZ002>013-054>058-071-098>099-210000-
NORTHERN WYOMING

CITY           SKY/WX    TMP DP  RH WIND       PRES   REMARKS
JACKSON        PTSUNNY   23  18  80 CALM      29.42F
CODY           FAIR      25  20  81 NE7       29.39R WCI  17
GREYBULL       FAIR      36  29  75 SE5       29.41R WCI  32
WORLAND        FAIR      35  30  82 SE10      29.39S WCI  27
SHERIDAN       FAIR      37  31  78 SW7       29.39S WCI  32
BUFFALO        MOCLDY    35  30  82 CALM      29.40S
GILLETTE       CLOUDY    34  33  96 NW9       29.38S WCI  27
HULETT         CLOUDY    34  32  93 W7        29.38R WCI  28
NEWCASTLE      CLOUDY    32  32 100 NW13      29.38R WCI  22

$$
WYZ014>020-022>026-101>103-210000-
CENTRAL WYOMING

CITY           SKY/WX    TMP DP  RH WIND       PRES   REMARKS
BIG PINEY      FAIR       7   2  80 NE3       29.46S
PINEDALE       FAIR      16  10  79 CALM      29.46S
DUBOIS         NOT AVBL
LANDER         FAIR      30  19  63 N5        29.38F WCI  25
RIVERTON       FAIR      27  18  69 NE3       29.40S
CASPER         FAIR      34  27  75 MISG      29.41R
DOUGLAS        CLOUDY    35  32  88 NW10      29.41R WCI  27

$$
WYZ021-027>030-104>119-210000-
SOUTHERN WYOMING

CITY           SKY/WX    TMP DP  RH WIND       PRES   REMARKS
EVANSTON       PTSUNNY   25  17  72 E5        29.41F WCI  19
ROCK SPRINGS   FOG       22  19  89 N5        29.45F VSB<1/4 WCI  16
RAWLINS        FAIR      26  18  71 SW10      29.47R WCI  16
LARAMIE        FAIR      28  17  63 NW13      29.40R WCI  17
CHEYENNE       FAIR      36  19  50 NW15G28   29.38R WCI  27
TORRINGTON     CLOUDY    37  33  85 W15       29.39R WCI  28

$$




USA.gov is the U.S. government's official web portal to all federal, state and local government web resources and services.